| time (UTC) | temp C | wind direction | speed KPH | gust KPH | rain 1hr cm | rain 24hr cm | rain mn cm | humidity % | barometer mb |
| 20260506190001 | 26 | 290 | 1.6 | 14.5 | 0.00 | 0.00 | 0.00 | 22 | 1016.7 |
| 20260506184959 | 26 | 348 | 3.2 | 12.9 | 0.00 | 0.00 | 0.00 | 22 | 1016.8 |
| 20260506184000 | 26 | 360 | 1.6 | 8.0 | 0.00 | 0.00 | 0.00 | 22 | 1016.8 |
| 20260506183000 | 26 | 163 | 4.8 | 11.3 | 0.00 | 0.00 | 0.00 | 23 | 1016.9 |
| 20260506181959 | 25 | 252 | 4.8 | 11.3 | 0.00 | 0.00 | 0.00 | 23 | 1017.0 |
| 20260506180959 | 24 | 142 | 4.8 | 14.5 | 0.00 | 0.00 | 0.00 | 24 | 1017.0 |
| 20260506180001 | 24 | 27 | 4.8 | 14.5 | 0.00 | 0.00 | 0.00 | 24 | 1017.1 |
| 20260506175000 | 24 | 288 | 3.2 | 12.9 | 0.00 | 0.00 | 0.00 | 24 | 1017.0 |
| 20260506173959 | 24 | 360 | 3.2 | 8.0 | 0.00 | 0.00 | 0.00 | 23 | 1017.0 |
| 20260506173000 | 23 | 107 | 3.2 | 12.9 | 0.00 | 0.00 | 0.00 | 24 | 1017.0 |
| 20260506171959 | 23 | 18 | 1.6 | 8.0 | 0.00 | 0.00 | 0.00 | 25 | 1017.0 |
| 20260506170959 | 23 | 47 | 1.6 | 9.7 | 0.00 | 0.00 | 0.00 | 26 | 1017.0 |
| 20260506165959 | 22 | 11 | 3.2 | 8.0 | 0.00 | 0.00 | 0.00 | 25 | 1016.9 |
| 20260506164958 | 22 | 306 | 4.8 | 9.7 | 0.00 | 0.00 | 0.00 | 26 | 1016.8 |
| 20260506163958 | 22 | 261 | 1.6 | 4.8 | 0.00 | 0.00 | 0.00 | 26 | 1016.7 |
| 20260506162958 | 22 | 42 | 6.4 | 8.0 | 0.00 | 0.00 | 0.00 | 26 | 1016.7 |
| 20260506161959 | 22 | 221 | 3.2 | 11.3 | 0.00 | 0.00 | 0.00 | 27 | 1016.7 |
| 20260506160959 | 21 | 225 | 1.6 | 9.7 | 0.00 | 0.00 | 0.00 | 27 | 1016.7 |
| 20260506160001 | 21 | 115 | 4.8 | 8.0 | 0.00 | 0.00 | 0.00 | 27 | 1016.6 |
| 20260506154958 | 20 | 221 | 4.8 | 11.3 | 0.00 | 0.00 | 0.00 | 29 | 1016.6 |
| 20260506153958 | 20 | 182 | 4.8 | 14.5 | 0.00 | 0.00 | 0.00 | 30 | 1016.4 |
| 20260506152959 | 20 | 207 | 6.4 | 14.5 | 0.00 | 0.00 | 0.00 | 32 | 1016.4 |
| 20260506151958 | 19 | 167 | 6.4 | 12.9 | 0.00 | 0.00 | 0.00 | 34 | 1016.4 |
| 20260506150959 | 18 | 190 | 8.0 | 17.7 | 0.00 | 0.00 | 0.00 | 34 | 1016.3 |
| 20260506150002 | 18 | 206 | 8.0 | 14.5 | 0.00 | 0.00 | 0.00 | 35 | 1016.3 |
| 20260506144958 | 18 | 206 | 6.4 | 11.3 | 0.00 | 0.00 | 0.00 | 35 | 1016.1 |
| 20260506143958 | 17 | 174 | 6.4 | 14.5 | 0.00 | 0.00 | 0.00 | 36 | 1016.1 |
| 20260506142959 | 17 | 237 | 8.0 | 16.1 | 0.00 | 0.00 | 0.00 | 37 | 1016.0 |
| 20260506142000 | 17 | 148 | 6.4 | 12.9 | 0.00 | 0.00 | 0.00 | 37 | 1015.9 |
| 20260506140958 | 16 | 146 | 4.8 | 12.9 | 0.00 | 0.00 | 0.00 | 38 | 1015.7 |
| 20260506135958 | 16 | 208 | 6.4 | 16.1 | 0.00 | 0.00 | 0.00 | 39 | 1015.5 |
| 20260506134958 | 16 | 132 | 6.4 | 9.7 | 0.00 | 0.00 | 0.00 | 39 | 1015.5 |
| 20260506133958 | 15 | 103 | 4.8 | 11.3 | 0.00 | 0.00 | 0.00 | 40 | 1015.3 |
| 20260506132958 | 15 | 141 | 8.0 | 12.9 | 0.00 | 0.00 | 0.00 | 41 | 1015.2 |
| 20260506131957 | 15 | 198 | 6.4 | 9.7 | 0.00 | 0.00 | 0.00 | 41 | 1015.0 |
| 20260506130957 | 15 | 207 | 4.8 | 12.9 | 0.00 | 0.00 | 0.00 | 41 | 1014.9 |
| 20260506130000 | 15 | 177 | 4.8 | 11.3 | 0.00 | 0.00 | 0.00 | 40 | 1014.8 |
| 20260506124958 | 15 | 148 | 6.4 | 9.7 | 0.00 | 0.00 | 0.00 | 40 | 1014.7 |
| 20260506123957 | 15 | 184 | 4.8 | 11.3 | 0.00 | 0.00 | 0.00 | 40 | 1014.5 |
| 20260506122957 | 15 | 159 | 6.4 | 11.3 | 0.00 | 0.00 | 0.00 | 40 | 1014.4 |
| 20260506121959 | 15 | 120 | 6.4 | 9.7 | 0.00 | 0.00 | 0.00 | 40 | 1014.4 |
| 20260506120958 | 15 | 133 | 4.8 | 11.3 | 0.00 | 0.00 | 0.00 | 40 | 1014.4 |
| 20260506115956 | 15 | 165 | 6.4 | 11.3 | 0.00 | 0.00 | 0.00 | 40 | 1014.4 |
| 20260506114959 | 15 | 146 | 4.8 | 11.3 | 0.00 | 0.00 | 0.00 | 39 | 1014.3 |
| 20260506113958 | 15 | 119 | 6.4 | 12.9 | 0.00 | 0.00 | 0.00 | 39 | 1014.3 |
| 20260506112959 | 15 | 144 | 6.4 | 9.7 | 0.00 | 0.00 | 0.00 | 38 | 1014.2 |
| 20260506111957 | 16 | 165 | 4.8 | 9.7 | 0.00 | 0.00 | 0.00 | 38 | 1014.1 |
| 20260506110956 | 16 | 141 | 9.7 | 14.5 | 0.00 | 0.00 | 0.00 | 38 | 1014.0 |
| 20260506105959 | 16 | 211 | 6.4 | 12.9 | 0.00 | 0.00 | 0.00 | 38 | 1013.9 |
| 20260506104958 | 16 | 193 | 9.7 | 17.7 | 0.00 | 0.00 | 0.00 | 38 | 1013.8 |
| 20260506104000 | 16 | 190 | 8.0 | 14.5 | 0.00 | 0.00 | 0.00 | 38 | 1013.8 |
| 20260506102958 | 16 | 179 | 6.4 | 12.9 | 0.00 | 0.00 | 0.00 | 37 | 1013.7 |
| 20260506101957 | 16 | 192 | 4.8 | 14.5 | 0.00 | 0.00 | 0.00 | 37 | 1013.5 |
| 20260506101000 | 16 | 101 | 9.7 | 16.1 | 0.00 | 0.00 | 0.00 | 37 | 1013.4 |
| 20260506095957 | 16 | 147 | 11.3 | 17.7 | 0.00 | 0.00 | 0.00 | 37 | 1013.3 |
| 20260506094957 | 16 | 119 | 9.7 | 14.5 | 0.00 | 0.00 | 0.00 | 37 | 1013.3 |
| 20260506093956 | 16 | 153 | 9.7 | 16.1 | 0.00 | 0.00 | 0.00 | 36 | 1013.2 |
| 20260506092956 | 16 | 214 | 8.0 | 16.1 | 0.00 | 0.00 | 0.00 | 36 | 1013.2 |
| 20260506091957 | 16 | 175 | 8.0 | 16.1 | 0.00 | 0.00 | 0.00 | 36 | 1013.1 |
| 20260506090957 | 16 | 178 | 9.7 | 19.3 | 0.00 | 0.00 | 0.00 | 36 | 1013.1 |
| 20260506090001 | 16 | 155 | 6.4 | 17.7 | 0.00 | 0.00 | 0.00 | 35 | 1013.0 |
| 20260506084957 | 17 | 209 | 8.0 | 16.1 | 0.00 | 0.00 | 0.00 | 35 | 1012.9 |
| 20260506083957 | 17 | 225 | 6.4 | 12.9 | 0.00 | 0.00 | 0.00 | 34 | 1012.8 |
| 20260506082957 | 17 | 165 | 6.4 | 14.5 | 0.00 | 0.00 | 0.00 | 34 | 1012.8 |
| 20260506081957 | 17 | 197 | 6.4 | 14.5 | 0.00 | 0.00 | 0.00 | 33 | 1012.8 |
| 20260506080957 | 17 | 129 | 8.0 | 14.5 | 0.00 | 0.00 | 0.00 | 33 | 1012.9 |
| 20260506073000 | 17 | 187 | 9.7 | 16.1 | 0.00 | 0.00 | 0.00 | 31 | 1013.0 |
| 20260506072001 | 17 | 136 | 8.0 | 17.7 | 0.00 | 0.00 | 0.00 | 28 | 1013.0 |
| 20260506071002 | 17 | 128 | 8.0 | 14.5 | 0.00 | 0.00 | 0.00 | 28 | 1013.0 |
| 20260506062000 | 17 | 155 | 6.4 | 8.0 | 0.00 | 0.00 | 0.00 | 27 | 1012.5 |
| 20260506061000 | 17 | 142 | 4.8 | 8.0 | 0.00 | 0.00 | 0.00 | 28 | 1012.4 |
| 20260506050959 | 18 | 138 | 4.8 | 8.0 | 0.00 | 0.00 | 0.00 | 29 | 1011.9 |
| 20260506045001 | 18 | 165 | 4.8 | 14.5 | 0.00 | 0.00 | 0.00 | 28 | 1011.7 |
| 20260506044000 | 18 | 130 | 6.4 | 11.3 | 0.00 | 0.00 | 0.00 | 28 | 1011.6 |
| 20260506043002 | 19 | 140 | 6.4 | 11.3 | 0.00 | 0.00 | 0.00 | 27 | 1011.6 |
| 20260506042001 | 19 | 165 | 4.8 | 11.3 | 0.00 | 0.00 | 0.00 | 27 | 1011.3 |
| 20260506041000 | 19 | 165 | 8.0 | 11.3 | 0.00 | 0.00 | 0.00 | 27 | 1011.3 |
| 20260506040000 | 19 | 135 | 6.4 | 11.3 | 0.00 | 0.00 | 0.00 | 26 | 1011.1 |
| 20260506034959 | 20 | 196 | 4.8 | 12.9 | 0.00 | 0.00 | 0.00 | 26 | 1011.0 |
| 20260506034000 | 20 | 138 | 6.4 | 14.5 | 0.00 | 0.00 | 0.00 | 26 | 1010.8 |
| 20260506032959 | 20 | 176 | 4.8 | 11.3 | 0.00 | 0.00 | 0.00 | 25 | 1010.6 |
| 20260506031959 | 20 | 216 | 6.4 | 16.1 | 0.00 | 0.00 | 0.00 | 25 | 1010.5 |
| 20260506031000 | 20 | 238 | 8.0 | 16.1 | 0.00 | 0.00 | 0.00 | 25 | 1010.3 |
| 20260506030000 | 20 | 219 | 6.4 | 14.5 | 0.00 | 0.00 | 0.00 | 25 | 1010.2 |
| 20260506025001 | 21 | 242 | 6.4 | 17.7 | 0.00 | 0.00 | 0.00 | 24 | 1009.9 |
| 20260506023958 | 21 | 165 | 8.0 | 16.1 | 0.00 | 0.00 | 0.00 | 24 | 1009.8 |
| 20260506022959 | 21 | 193 | 4.8 | 16.1 | 0.00 | 0.00 | 0.00 | 24 | 1009.7 |
| 20260506022000 | 21 | 250 | 4.8 | 19.3 | 0.00 | 0.00 | 0.00 | 23 | 1009.7 |
| 20260506021001 | 22 | 216 | 8.0 | 17.7 | 0.00 | 0.00 | 0.00 | 23 | 1009.5 |
| 20260506020000 | 22 | 212 | 4.8 | 12.9 | 0.00 | 0.00 | 0.00 | 22 | 1009.4 |
| 20260506014959 | 22 | 296 | 6.4 | 14.5 | 0.00 | 0.00 | 0.00 | 22 | 1009.4 |
| 20260506013959 | 22 | 237 | 6.4 | 11.3 | 0.00 | 0.00 | 0.00 | 21 | 1009.3 |
| 20260506012958 | 23 | 226 | 6.4 | 14.5 | 0.00 | 0.00 | 0.00 | 20 | 1009.2 |
| 20260506012000 | 23 | 221 | 8.0 | 16.1 | 0.00 | 0.00 | 0.00 | 19 | 1009.2 |
| 20260506010958 | 24 | 220 | 8.0 | 17.7 | 0.00 | 0.00 | 0.00 | 18 | 1009.1 |
| 20260506005959 | 24 | 139 | 1.6 | 6.4 | 0.00 | 0.00 | 0.00 | 16 | 1009.1 |
| 20260506004958 | 24 | 160 | 4.8 | 8.0 | 0.00 | 0.00 | 0.00 | 16 | 1009.1 |
| 20260506003958 | 23 | 79 | 1.6 | 8.0 | 0.00 | 0.00 | 0.00 | 16 | 1009.0 |
| 20260506002958 | 25 | 340 | 4.8 | 12.9 | 0.00 | 0.00 | 0.00 | 16 | 1008.9 |
| 20260506001959 | 25 | 318 | 1.6 | 6.4 | 0.00 | 0.00 | 0.00 | 15 | 1008.9 |
| 20260506000959 | 25 | 211 | 0.0 | 6.4 | 0.00 | 0.00 | 0.00 | 15 | 1008.9 |
| 20260506000003 | 25 | 179 | 1.6 | 12.9 | 0.00 | 0.00 | 0.00 | 16 | 1008.8 |
| 20260505234959 | 25 | 203 | 9.7 | 14.5 | 0.00 | 0.00 | 0.00 | 16 | 1008.8 |
| 20260505234000 | 24 | 345 | 3.2 | 6.4 | 0.00 | 0.00 | 0.00 | 16 | 1008.7 |
| 20260505232959 | 25 | 234 | 3.2 | 9.7 | 0.00 | 0.00 | 0.00 | 17 | 1008.8 |
| 20260505231959 | 25 | 132 | 6.4 | 17.7 | 0.00 | 0.00 | 0.00 | 17 | 1008.9 |
| 20260505231000 | 25 | 188 | 3.2 | 8.0 | 0.00 | 0.00 | 0.00 | 17 | 1009.0 |
| 20260505230001 | 25 | 191 | 3.2 | 16.1 | 0.00 | 0.00 | 0.00 | 18 | 1009.1 |
| 20260505224958 | 25 | 215 | 8.0 | 14.5 | 0.00 | 0.00 | 0.00 | 18 | 1009.3 |
| 20260505224000 | 24 | 211 | 4.8 | 8.0 | 0.00 | 0.00 | 0.00 | 19 | 1009.4 |
| 20260505222959 | 25 | 227 | 6.4 | 11.3 | 0.00 | 0.00 | 0.00 | 19 | 1009.5 |
| 20260505222001 | 25 | 150 | 8.0 | 16.1 | 0.00 | 0.00 | 0.00 | 18 | 1009.5 |
| 20260505221000 | 25 | 227 | 3.2 | 12.9 | 0.00 | 0.00 | 0.00 | 19 | 1009.6 |
| 20260505220001 | 25 | 163 | 8.0 | 17.7 | 0.00 | 0.00 | 0.00 | 20 | 1009.7 |
| 20260505214959 | 23 | 15 | 4.8 | 14.5 | 0.00 | 0.00 | 0.00 | 20 | 1009.8 |
| 20260505213959 | 25 | 204 | 4.8 | 17.7 | 0.00 | 0.00 | 0.00 | 19 | 1009.9 |
| 20260505213000 | 25 | 144 | 4.8 | 12.9 | 0.00 | 0.00 | 0.00 | 20 | 1010.1 |
| 20260505211959 | 25 | 227 | 6.4 | 12.9 | 0.00 | 0.00 | 0.00 | 20 | 1010.1 |
| 20260505210959 | 25 | 150 | 4.8 | 20.9 | 0.00 | 0.00 | 0.00 | 19 | 1010.3 |
| 20260505210003 | 25 | 150 | 4.8 | 24.1 | 0.00 | 0.00 | 0.00 | 18 | 1010.3 |
| 20260505205001 | 25 | 5 | 8.0 | 16.1 | 0.00 | 0.00 | 0.00 | 20 | 1010.3 |
| 20260505204001 | 24 | 159 | 6.4 | 19.3 | 0.00 | 0.00 | 0.00 | 21 | 1010.4 |
| 20260505203001 | 23 | 193 | 4.8 | 12.9 | 0.00 | 0.00 | 0.00 | 20 | 1010.3 |
| 20260505202002 | 23 | 216 | 4.8 | 9.7 | 0.00 | 0.00 | 0.00 | 21 | 1010.4 |
| 20260505201000 | 23 | 164 | 9.7 | 29.0 | 0.00 | 0.00 | 0.00 | 21 | 1010.5 |
| 20260505200003 | 23 | 262 | 3.2 | 16.1 | 0.00 | 0.00 | 0.00 | 21 | 1010.6 |
| 20260505194959 | 22 | 209 | 6.4 | 12.9 | 0.00 | 0.00 | 0.00 | 23 | 1010.7 |
| 20260505194000 | 22 | 245 | 6.4 | 19.3 | 0.00 | 0.00 | 0.00 | 23 | 1010.9 |
| 20260505193000 | 22 | 196 | 3.2 | 17.7 | 0.00 | 0.00 | 0.00 | 25 | 1010.9 |
| 20260505192000 | 22 | 157 | 4.8 | 12.9 | 0.00 | 0.00 | 0.00 | 24 | 1011.0 |
| 20260505191000 | 21 | 227 | 3.2 | 16.1 | 0.00 | 0.00 | 0.00 | 23 | 1011.0 |